| time (UTC) | temp F | wind direction | speed knots | gust knots | rain 1hr in | rain 24hr in | rain mn in | humidity % | barometer mb |
| 20260905205059 | 94 | 11 | 0.0 | 1.7 | 0.00 | 0.00 | 0.00 | 18 | 1012.7 |
| 20260905204559 | 93 | 11 | 0.9 | 4.3 | 0.00 | 0.00 | 0.00 | 30 | 1012.8 |
| 20260905204058 | 93 | 11 | 1.7 | 4.3 | 0.00 | 0.00 | 0.00 | 41 | 1013.0 |
| 20260905203558 | 93 | 98 | 0.9 | 2.6 | 0.00 | 0.00 | 0.00 | 29 | 1013.0 |
| 20260905203057 | 93 | 99 | 0.0 | 1.7 | 0.00 | 0.00 | 0.00 | 18 | 1013.1 |
| 20260905202557 | 94 | 99 | 0.0 | 1.7 | 0.00 | 0.00 | 0.00 | 33 | 1013.0 |
| 20260905202101 | 94 | 99 | 0.9 | 2.6 | 0.00 | 0.00 | 0.00 | 43 | 1013.4 |
| 20260905202057 | 94 | 99 | 0.0 | 2.6 | 0.00 | 0.00 | 0.00 | 36 | 1013.1 |
| 20260905201057 | 95 | 50 | 0.9 | 3.5 | 0.00 | 0.00 | 0.00 | 49 | 1013.4 |
| 20260905200555 | 95 | 51 | 0.9 | 3.5 | 0.00 | 0.00 | 0.00 | 50 | 1013.4 |
| 20260905200053 | 95 | 355 | 0.9 | 3.5 | 0.00 | 0.00 | 0.00 | 46 | 1013.4 |
| 20260905195553 | 95 | 355 | 0.9 | 3.5 | 0.00 | 0.00 | 0.00 | 51 | 1013.4 |
| 20260905195053 | 96 | 49 | 0.9 | 2.6 | 0.00 | 0.00 | 0.00 | 49 | 1013.5 |
| 20260905194553 | 96 | 25 | 1.7 | 3.5 | 0.00 | 0.00 | 0.00 | 49 | 1013.5 |
| 20260905194053 | 95 | 26 | 1.7 | 4.3 | 0.00 | 0.00 | 0.00 | 51 | 1013.5 |
| 20260905193551 | 96 | 332 | 1.7 | 4.3 | 0.00 | 0.00 | 0.00 | 51 | 1013.5 |
| 20260905193051 | 96 | 28 | 1.7 | 3.5 | 0.00 | 0.00 | 0.00 | 51 | 1013.5 |
| 20260905192551 | 96 | 82 | 0.9 | 2.6 | 0.00 | 0.00 | 0.00 | 48 | 1013.6 |
| 20260905192054 | 96 | 42 | 0.9 | 3.5 | 0.00 | 0.00 | 0.00 | 47 | 1013.7 |
| 20260905192050 | 96 | 14 | 0.9 | 3.5 | 0.00 | 0.00 | 0.00 | 51 | 1013.7 |
| 20260905191055 | 95 | 63 | 0.9 | 4.3 | 0.00 | 0.00 | 0.00 | 51 | 1013.8 |
| 20260905191051 | 95 | 31 | 0.9 | 4.3 | 0.00 | 0.00 | 0.00 | 51 | 1013.7 |
| 20260905190050 | 95 | 42 | 0.9 | 2.6 | 0.00 | 0.00 | 0.00 | 50 | 1013.9 |
| 20260905185550 | 95 | 13 | 1.7 | 3.5 | 0.00 | 0.00 | 0.00 | 48 | 1014.1 |
| 20260905185050 | 95 | 221 | 1.7 | 4.3 | 0.00 | 0.00 | 0.00 | 50 | 1014.1 |
| 20260905184550 | 95 | 30 | 0.9 | 4.3 | 0.00 | 0.00 | 0.00 | 49 | 1014.2 |
| 20260905184051 | 95 | 251 | 0.9 | 4.3 | 0.00 | 0.00 | 0.00 | 49 | 1014.2 |
| 20260905183551 | 94 | 54 | 1.7 | 3.5 | 0.00 | 0.00 | 0.00 | 51 | 1014.3 |
| 20260905183051 | 94 | 311 | 1.7 | 4.3 | 0.00 | 0.00 | 0.00 | 45 | 1014.3 |
| 20260905182551 | 94 | 236 | 1.7 | 4.3 | 0.00 | 0.00 | 0.00 | 49 | 1014.4 |
| 20260905182051 | 94 | 218 | 1.7 | 4.3 | 0.00 | 0.00 | 0.00 | 50 | 1014.5 |
| 20260905181551 | 94 | 199 | 1.7 | 3.5 | 0.00 | 0.00 | 0.00 | 49 | 1014.5 |
| 20260905181051 | 94 | 313 | 0.9 | 3.5 | 0.00 | 0.00 | 0.00 | 48 | 1014.6 |
| 20260905180551 | 94 | 154 | 0.9 | 3.5 | 0.00 | 0.00 | 0.00 | 44 | 1014.7 |
| 20260905180050 | 94 | 161 | 0.9 | 3.5 | 0.00 | 0.00 | 0.00 | 48 | 1014.7 |
| 20260905175551 | 93 | 135 | 0.9 | 4.3 | 0.00 | 0.00 | 0.00 | 37 | 1014.7 |
| 20260905175051 | 93 | 220 | 0.9 | 4.3 | 0.00 | 0.00 | 0.00 | 39 | 1014.8 |
| 20260905174555 | 92 | 130 | 0.9 | 3.5 | 0.00 | 0.00 | 0.00 | 24 | 1014.8 |
| 20260905174551 | 93 | 164 | 0.9 | 1.7 | 0.00 | 0.00 | 0.00 | 39 | 1014.9 |
| 20260905173550 | 92 | 276 | 1.7 | 3.5 | 0.00 | 0.00 | 0.00 | 33 | 1014.8 |
| 20260905173050 | 92 | 254 | 1.7 | 2.6 | 0.00 | 0.00 | 0.00 | 44 | 1014.8 |
| 20260905172556 | 91 | 115 | 1.7 | 7.0 | 0.00 | 0.00 | 0.00 | 35 | 1015.0 |
| 20260905172551 | 92 | 265 | 0.9 | 3.5 | 0.00 | 0.00 | 0.00 | 42 | 1014.9 |
| 20260905172050 | 91 | 208 | 1.7 | 7.0 | 0.00 | 0.00 | 0.00 | 41 | 1015.0 |
| 20260905171054 | 91 | 109 | 1.7 | 6.1 | 0.00 | 0.00 | 0.00 | 46 | 1015.1 |
| 20260905171050 | 91 | 109 | 1.7 | 7.0 | 0.00 | 0.00 | 0.00 | 44 | 1015.1 |
| 20260905170054 | 90 | 150 | 1.7 | 4.3 | 0.00 | 0.00 | 0.00 | 32 | 1015.0 |
| 20260905170050 | 91 | 279 | 1.7 | 4.3 | 0.00 | 0.00 | 0.00 | 36 | 1015.0 |
| 20260905165050 | 90 | 146 | 1.7 | 3.5 | 0.00 | 0.00 | 0.00 | 40 | 1015.0 |
| 20260905164550 | 90 | 263 | 1.7 | 4.3 | 0.00 | 0.00 | 0.00 | 34 | 1015.0 |
| 20260905164054 | 89 | 161 | 0.9 | 4.3 | 0.00 | 0.00 | 0.00 | 37 | 1015.2 |
| 20260905164050 | 90 | 171 | 1.7 | 4.3 | 0.00 | 0.00 | 0.00 | 26 | 1015.2 |
| 20260905163050 | 89 | 158 | 1.7 | 4.3 | 0.00 | 0.00 | 0.00 | 31 | 1015.3 |
| 20260905162550 | 89 | 171 | 1.7 | 4.3 | 0.00 | 0.00 | 0.00 | 36 | 1015.4 |
| 20260905162048 | 88 | 350 | 1.7 | 3.5 | 0.00 | 0.00 | 0.00 | 36 | 1015.4 |
| 20260905161548 | 88 | 190 | 1.7 | 5.2 | 0.00 | 0.00 | 0.00 | 28 | 1015.5 |
| 20260905161048 | 87 | 209 | 1.7 | 5.2 | 0.00 | 0.00 | 0.00 | 38 | 1015.5 |
| 20260905160547 | 87 | 165 | 1.7 | 6.1 | 0.00 | 0.00 | 0.00 | 33 | 1015.5 |
| 20260905160048 | 87 | 262 | 1.7 | 6.1 | 0.00 | 0.00 | 0.00 | 30 | 1015.5 |
| 20260905155548 | 86 | 217 | 0.9 | 3.5 | 0.00 | 0.00 | 0.00 | 12 | 1015.5 |
| 20260905155048 | 86 | 286 | 1.7 | 6.1 | 0.00 | 0.00 | 0.00 | 15 | 1015.5 |
| 20260905154548 | 85 | 300 | 1.7 | 6.1 | 0.00 | 0.00 | 0.00 | 29 | 1015.3 |
| 20260905154048 | 85 | 280 | 2.6 | 6.1 | 0.00 | 0.00 | 0.00 | 22 | 1015.4 |
| 20260905153547 | 85 | 202 | 1.7 | 6.1 | 0.00 | 0.00 | 0.00 | 16 | 1015.5 |
| 20260905153046 | 84 | 326 | 0.9 | 6.1 | 0.00 | 0.00 | 0.00 | 7 | 1015.6 |
| 20260905152546 | 84 | 111 | 0.9 | 4.3 | 0.00 | 0.00 | 0.00 | 4 | 1015.7 |
| 20260905152046 | 83 | 89 | 0.9 | 6.1 | 0.00 | 0.00 | 0.00 | 12 | 1015.9 |
| 20260905151547 | 83 | 259 | 0.9 | 6.1 | 0.00 | 0.00 | 0.00 | 1 | 1015.9 |
| 20260905151047 | 82 | 331 | 1.7 | 6.1 | 0.00 | 0.00 | 0.00 | 1 | 1015.8 |
| 20260905150546 | 82 | 166 | 1.7 | 6.1 | 0.00 | 0.00 | 0.00 | 1 | 1015.8 |
| 20260905150046 | 81 | 179 | 1.7 | 7.0 | 0.00 | 0.00 | 0.00 | 1 | 1015.8 |
| 20260905145546 | 80 | 115 | 1.7 | 7.0 | 0.00 | 0.00 | 0.00 | 1 | 1015.8 |
| 20260905145046 | 80 | 130 | 1.7 | 6.1 | 0.00 | 0.00 | 0.00 | 1 | 1015.7 |
| 20260905144546 | 79 | 294 | 1.7 | 6.1 | 0.00 | 0.00 | 0.00 | 1 | 1015.8 |
| 20260905144045 | 78 | 9 | 1.7 | 6.1 | 0.00 | 0.00 | 0.00 | 1 | 1015.7 |
| 20260905143546 | 78 | 355 | 1.7 | 6.1 | 0.00 | 0.00 | 0.00 | 1 | 1015.8 |
| 20260905143046 | 78 | 269 | 1.7 | 5.2 | 0.00 | 0.00 | 0.00 | 1 | 1015.7 |
| 20260905142546 | 77 | 110 | 2.6 | 5.2 | 0.00 | 0.00 | 0.00 | 1 | 1015.8 |
| 20260905142044 | 77 | 350 | 1.7 | 7.0 | 0.00 | 0.00 | 0.00 | 1 | 1016.0 |
| 20260905141544 | 77 | 17 | 1.7 | 7.0 | 0.00 | 0.00 | 0.00 | 1 | 1016.0 |
| 20260905141044 | 77 | 215 | 1.7 | 7.0 | 0.00 | 0.00 | 0.00 | 1 | 1016.0 |
| 20260905140544 | 76 | 34 | 2.6 | 8.7 | 0.00 | 0.00 | 0.00 | 1 | 1016.1 |
| 20260905140041 | 76 | 9 | 1.7 | 8.7 | 0.00 | 0.00 | 0.00 | 1 | 1016.1 |
| 20260905135545 | 76 | 238 | 1.7 | 7.0 | 0.00 | 0.00 | 0.00 | 1 | 1016.0 |
| 20260905135541 | 76 | 284 | 0.9 | 5.2 | 0.00 | 0.00 | 0.00 | 1 | 1016.0 |
| 20260905134545 | 76 | 135 | 1.7 | 7.0 | 0.00 | 0.00 | 0.00 | 1 | 1015.9 |
| 20260905134541 | 76 | 20 | 1.7 | 7.0 | 0.00 | 0.00 | 0.00 | 1 | 1016.0 |
| 20260905133541 | 76 | 355 | 2.6 | 7.0 | 0.00 | 0.00 | 0.00 | 1 | 1015.9 |
| 20260905133041 | 76 | 320 | 1.7 | 7.0 | 0.00 | 0.00 | 0.00 | 1 | 1016.0 |
| 20260905132541 | 76 | 12 | 1.7 | 6.1 | 0.00 | 0.00 | 0.00 | 1 | 1015.9 |
| 20260905132042 | 76 | 39 | 1.7 | 6.1 | 0.00 | 0.00 | 0.00 | 1 | 1015.8 |
| 20260905131542 | 76 | 22 | 2.6 | 10.4 | 0.00 | 0.00 | 0.00 | 1 | 1015.7 |
| 20260905131044 | 76 | 350 | 3.5 | 11.3 | 0.00 | 0.00 | 0.00 | 1 | 1015.6 |
| 20260905131040 | 76 | 77 | 3.5 | 11.3 | 0.00 | 0.00 | 0.00 | 1 | 1015.7 |
| 20260905130039 | 76 | 89 | 2.6 | 7.8 | 0.00 | 0.00 | 0.00 | 1 | 1015.8 |
| 20260905125540 | 75 | 15 | 3.5 | 7.8 | 0.00 | 0.00 | 0.00 | 1 | 1015.8 |
| 20260905125043 | 74 | 89 | 0.0 | 2.6 | 0.00 | 0.00 | 0.00 | 1 | 1015.6 |
| 20260905125039 | 75 | 349 | 1.7 | 7.8 | 0.00 | 0.00 | 0.00 | 1 | 1015.7 |
| 20260905124039 | 74 | 169 | 0.0 | 0.0 | 0.00 | 0.00 | 0.00 | 1 | 1015.2 |
| 20260905123539 | 74 | 169 | 0.0 | 0.0 | 0.00 | 0.00 | 0.00 | 1 | 1015.1 |
| 20260905123039 | 74 | 169 | 0.0 | 0.0 | 0.00 | 0.00 | 0.00 | 1 | 1015.1 |
| 20260905122539 | 74 | 169 | 0.0 | 0.0 | 0.00 | 0.00 | 0.00 | 1 | 1015.0 |
| 20260905122039 | 74 | 169 | 0.0 | 0.0 | 0.00 | 0.00 | 0.00 | 1 | 1015.1 |
| 20260905121543 | 74 | 169 | 0.0 | 0.9 | 0.00 | 0.00 | 0.00 | 1 | 1015.0 |
| 20260905121539 | 74 | 169 | 0.0 | 0.9 | 0.00 | 0.00 | 0.00 | 1 | 1015.0 |
| 20260905120539 | 74 | 169 | 0.0 | 0.0 | 0.00 | 0.00 | 0.00 | 1 | 1014.8 |
| 20260905120043 | 74 | 169 | 0.0 | 1.7 | 0.00 | 0.00 | 0.00 | 1 | 1014.9 |
| 20260905120039 | 74 | 169 | 0.0 | 0.9 | 0.00 | 0.00 | 0.00 | 1 | 1014.8 |
| 20260905115039 | 74 | 169 | 0.9 | 1.7 | 0.00 | 0.00 | 0.00 | 1 | 1014.8 |
| 20260905114539 | 74 | 169 | 0.0 | 1.7 | 0.00 | 0.00 | 0.00 | 1 | 1014.9 |
| 20260905114039 | 74 | 169 | 0.0 | 1.7 | 0.00 | 0.00 | 0.00 | 1 | 1015.0 |
| 20260905113539 | 74 | 169 | 0.0 | 1.7 | 0.00 | 0.00 | 0.00 | 1 | 1015.0 |
| 20260905113043 | 74 | 169 | 0.0 | 0.0 | 0.00 | 0.00 | 0.00 | 1 | 1014.8 |
| 20260905113039 | 74 | 169 | 0.0 | 0.0 | 0.00 | 0.00 | 0.00 | 1 | 1015.0 |
| 20260905112037 | 74 | 169 | 0.0 | 0.9 | 0.00 | 0.00 | 0.00 | 1 | 1014.9 |
| 20260905111537 | 74 | 169 | 0.0 | 0.9 | 0.00 | 0.00 | 0.00 | 1 | 1014.7 |
| 20260905111037 | 74 | 169 | 0.0 | 0.0 | 0.00 | 0.00 | 0.00 | 1 | 1014.7 |
| 20260905110537 | 74 | 169 | 0.0 | 0.0 | 0.00 | 0.00 | 0.00 | 1 | 1014.6 |
| 20260905110038 | 74 | 169 | 0.0 | 0.0 | 0.00 | 0.00 | 0.00 | 1 | 1014.5 |
| 20260905105538 | 74 | 169 | 0.0 | 0.0 | 0.00 | 0.00 | 0.00 | 1 | 1014.5 |
| 20260905105037 | 74 | 169 | 0.0 | 0.0 | 0.00 | 0.00 | 0.00 | 1 | 1014.6 |
| 20260905104536 | 74 | 169 | 0.0 | 0.0 | 0.00 | 0.00 | 0.00 | 1 | 1014.6 |
| 20260905104035 | 74 | 169 | 0.0 | 0.0 | 0.00 | 0.00 | 0.00 | 1 | 1014.6 |
| 20260905103540 | 74 | 169 | 0.0 | 0.0 | 0.00 | 0.00 | 0.00 | 1 | 1014.6 |
| 20260905103535 | 74 | 169 | 0.0 | 0.0 | 0.00 | 0.00 | 0.00 | 1 | 1014.5 |
| 20260905102534 | 74 | 169 | 0.0 | 0.0 | 0.00 | 0.00 | 0.00 | 1 | 1014.6 |
| 20260905102032 | 74 | 169 | 0.0 | 0.9 | 0.00 | 0.00 | 0.00 | 1 | 1014.6 |
| 20260905101539 | 74 | 169 | 0.0 | 1.7 | 0.00 | 0.00 | 0.00 | 1 | 1014.6 |
| 20260905101531 | 74 | 169 | 0.0 | 1.7 | 0.00 | 0.00 | 0.00 | 1 | 1014.6 |
| 20260905101031 | 74 | 169 | 0.0 | 1.7 | 0.00 | 0.00 | 0.00 | 1 | 1014.7 |
| 20260905100642 | 74 | 169 | 0.0 | 1.7 | 0.00 | 0.00 | 0.00 | 1 | 1014.6 |
| 20260905100531 | 74 | 169 | 0.0 | 0.0 | 0.00 | 0.00 | 0.00 | 1 | 1014.6 |
| 20260905095029 | 74 | 169 | 0.0 | 1.7 | 0.00 | 0.00 | 0.00 | 1 | 1014.7 |
| 20260905094530 | 74 | 169 | 0.0 | 0.0 | 0.00 | 0.00 | 0.00 | 1 | 1014.6 |
| 20260905094029 | 74 | 169 | 0.0 | 0.0 | 0.00 | 0.00 | 0.00 | 1 | 1014.6 |
| 20260905093529 | 74 | 169 | 0.0 | 0.0 | 0.00 | 0.00 | 0.00 | 1 | 1014.6 |
| 20260905093029 | 74 | 169 | 0.0 | 0.0 | 0.00 | 0.00 | 0.00 | 1 | 1014.5 |
| 20260905092529 | 74 | 169 | 0.0 | 0.0 | 0.00 | 0.00 | 0.00 | 1 | 1014.4 |
| 20260905092029 | 74 | 169 | 0.0 | 0.0 | 0.00 | 0.00 | 0.00 | 1 | 1014.4 |
| 20260905091531 | 75 | 169 | 0.0 | 0.0 | 0.00 | 0.00 | 0.00 | 1 | 1014.4 |
| 20260905091527 | 74 | 169 | 0.0 | 0.0 | 0.00 | 0.00 | 0.00 | 1 | 1014.3 |
| 20260905090527 | 75 | 169 | 0.0 | 0.0 | 0.00 | 0.00 | 0.00 | 1 | 1014.3 |
| 20260905090027 | 75 | 169 | 0.0 | 0.0 | 0.00 | 0.00 | 0.00 | 1 | 1014.2 |
| 20260905085527 | 75 | 169 | 0.0 | 0.0 | 0.00 | 0.00 | 0.00 | 1 | 1014.2 |
| 20260905085031 | 75 | 169 | 0.0 | 0.0 | 0.00 | 0.00 | 0.00 | 1 | 1014.2 |
| 20260905085027 | 75 | 169 | 0.0 | 0.0 | 0.00 | 0.00 | 0.00 | 1 | 1014.2 |
| 20260905084027 | 75 | 169 | 0.0 | 0.0 | 0.00 | 0.00 | 0.00 | 1 | 1014.1 |
| 20260905083528 | 75 | 169 | 0.0 | 0.0 | 0.00 | 0.00 | 0.00 | 1 | 1014.1 |
| 20260905083026 | 75 | 169 | 0.0 | 0.0 | 0.00 | 0.00 | 0.00 | 1 | 1014.0 |
| 20260905082525 | 75 | 169 | 0.0 | 0.0 | 0.00 | 0.00 | 0.00 | 1 | 1014.0 |
| 20260905082025 | 75 | 169 | 0.0 | 0.0 | 0.00 | 0.00 | 0.00 | 1 | 1014.0 |
| 20260905081529 | 75 | 169 | 0.0 | 0.0 | 0.00 | 0.00 | 0.00 | 1 | 1014.0 |
| 20260905081525 | 75 | 169 | 0.0 | 0.0 | 0.00 | 0.00 | 0.00 | 1 | 1014.0 |
| 20260905080525 | 75 | 169 | 0.0 | 0.0 | 0.00 | 0.00 | 0.00 | 1 | 1014.0 |
| 20260905080025 | 75 | 169 | 0.0 | 0.0 | 0.00 | 0.00 | 0.00 | 1 | 1014.0 |
| 20260905075529 | 76 | 169 | 0.0 | 0.0 | 0.00 | 0.00 | 0.00 | 1 | 1013.9 |
| 20260905075525 | 75 | 169 | 0.0 | 0.0 | 0.00 | 0.00 | 0.00 | 1 | 1014.0 |
| 20260905074524 | 76 | 169 | 0.0 | 0.0 | 0.00 | 0.00 | 0.00 | 1 | 1014.0 |
| 20260905074025 | 76 | 169 | 0.0 | 0.0 | 0.00 | 0.00 | 0.00 | 1 | 1014.0 |
| 20260905073525 | 76 | 169 | 0.0 | 0.0 | 0.00 | 0.00 | 0.00 | 1 | 1014.0 |
| 20260905073025 | 76 | 169 | 0.0 | 0.0 | 0.00 | 0.00 | 0.00 | 1 | 1013.9 |
| 20260905072524 | 76 | 169 | 0.0 | 0.0 | 0.00 | 0.00 | 0.00 | 1 | 1014.0 |
| 20260905072025 | 76 | 169 | 0.0 | 0.0 | 0.00 | 0.00 | 0.00 | 1 | 1014.1 |
| 20260905071525 | 76 | 169 | 0.0 | 0.0 | 0.00 | 0.00 | 0.00 | 1 | 1014.1 |
| 20260905071024 | 76 | 169 | 0.0 | 0.0 | 0.00 | 0.00 | 0.00 | 1 | 1014.1 |
| 20260905070529 | 76 | 169 | 0.0 | 0.0 | 0.00 | 0.00 | 0.00 | 1 | 1014.3 |
| 20260905070524 | 76 | 169 | 0.0 | 0.0 | 0.00 | 0.00 | 0.00 | 1 | 1014.2 |
| 20260905065524 | 76 | 169 | 0.0 | 0.0 | 0.00 | 0.00 | 0.00 | 1 | 1014.3 |
| 20260905065028 | 76 | 169 | 0.0 | 0.0 | 0.00 | 0.00 | 0.00 | 1 | 1014.4 |
| 20260905065024 | 76 | 169 | 0.0 | 0.0 | 0.00 | 0.00 | 0.00 | 1 | 1014.3 |
| 20260905064627 | 76 | 169 | 0.0 | 0.0 | 0.00 | 0.00 | 0.00 | 1 | 1014.5 |
| 20260905063522 | 76 | 169 | 0.0 | 0.0 | 0.00 | 0.00 | 0.00 | 1 | 1014.5 |
| 20260905063022 | 76 | 169 | 0.0 | 0.0 | 0.00 | 0.00 | 0.00 | 1 | 1014.5 |
| 20260905062522 | 76 | 169 | 0.0 | 0.0 | 0.00 | 0.00 | 0.00 | 1 | 1014.6 |
| 20260905062026 | 76 | 169 | 0.0 | 0.0 | 0.00 | 0.00 | 0.00 | 1 | 1014.7 |
| 20260905062022 | 76 | 169 | 0.0 | 0.0 | 0.00 | 0.00 | 0.00 | 1 | 1014.6 |
| 20260905061626 | 77 | 169 | 0.0 | 0.0 | 0.00 | 0.00 | 0.00 | 1 | 1014.7 |
| 20260905060520 | 77 | 169 | 0.0 | 0.0 | 0.00 | 0.00 | 0.00 | 1 | 1014.7 |
| 20260905060020 | 77 | 169 | 0.0 | 0.0 | 0.00 | 0.00 | 0.00 | 1 | 1014.8 |
| 20260905055520 | 77 | 169 | 0.0 | 0.0 | 0.00 | 0.00 | 0.00 | 1 | 1014.8 |
| 20260905055020 | 77 | 169 | 0.0 | 0.0 | 0.00 | 0.00 | 0.00 | 1 | 1014.7 |
| 20260905054527 | 78 | 169 | 0.0 | 0.0 | 0.00 | 0.00 | 0.00 | 1 | 1014.6 |
| 20260905054521 | 77 | 169 | 0.0 | 0.0 | 0.00 | 0.00 | 0.00 | 1 | 1014.8 |
| 20260905054021 | 77 | 169 | 0.0 | 0.0 | 0.00 | 0.00 | 0.00 | 1 | 1014.8 |
| 20260905053521 | 77 | 169 | 0.0 | 0.0 | 0.00 | 0.00 | 0.00 | 1 | 1014.8 |
| 20260905053021 | 77 | 169 | 0.0 | 0.0 | 0.00 | 0.00 | 0.00 | 1 | 1014.7 |
| 20260905052021 | 78 | 169 | 0.0 | 0.0 | 0.00 | 0.00 | 0.00 | 1 | 1014.6 |
| 20260905051521 | 78 | 169 | 0.0 | 0.0 | 0.00 | 0.00 | 0.00 | 1 | 1014.7 |
| 20260905051021 | 78 | 169 | 0.0 | 0.0 | 0.00 | 0.00 | 0.00 | 1 | 1014.9 |
| 20260905050520 | 78 | 169 | 0.0 | 0.0 | 0.00 | 0.00 | 0.00 | 1 | 1014.8 |
| 20260905050024 | 78 | 169 | 0.0 | 0.0 | 0.00 | 0.00 | 0.00 | 1 | 1015.0 |
| 20260905050020 | 78 | 169 | 0.0 | 0.0 | 0.00 | 0.00 | 0.00 | 1 | 1014.9 |
| 20260905045020 | 78 | 169 | 0.0 | 0.0 | 0.00 | 0.00 | 0.00 | 1 | 1015.0 |
| 20260905044520 | 78 | 169 | 0.0 | 0.0 | 0.00 | 0.00 | 0.00 | 1 | 1015.0 |
| 20260905044025 | 78 | 169 | 0.0 | 0.0 | 0.00 | 0.00 | 0.00 | 1 | 1015.0 |
| 20260905044021 | 78 | 169 | 0.0 | 0.0 | 0.00 | 0.00 | 0.00 | 1 | 1015.0 |
| 20260905043020 | 78 | 169 | 0.0 | 0.0 | 0.00 | 0.00 | 0.00 | 1 | 1015.0 |
| 20260905042522 | 78 | 169 | 0.0 | 0.0 | 0.00 | 0.00 | 0.00 | 1 | 1015.1 |
| 20260905042518 | 79 | 169 | 0.0 | 0.0 | 0.00 | 0.00 | 0.00 | 1 | 1015.2 |
| 20260905041518 | 79 | 169 | 0.0 | 0.0 | 0.00 | 0.00 | 0.00 | 1 | 1015.2 |
| 20260905041018 | 79 | 169 | 0.0 | 0.0 | 0.00 | 0.00 | 0.00 | 1 | 1015.3 |
| 20260905040522 | 79 | 169 | 0.0 | 0.0 | 0.00 | 0.00 | 0.00 | 1 | 1015.2 |
| 20260905040518 | 79 | 169 | 0.0 | 0.0 | 0.00 | 0.00 | 0.00 | 1 | 1015.3 |
| 20260905035516 | 79 | 169 | 0.0 | 0.0 | 0.00 | 0.00 | 0.00 | 1 | 1015.2 |
| 20260905035021 | 80 | 169 | 0.0 | 0.0 | 0.00 | 0.00 | 0.00 | 1 | 1015.2 |
| 20260905035016 | 79 | 169 | 0.0 | 0.0 | 0.00 | 0.00 | 0.00 | 1 | 1015.2 |
| 20260905034016 | 80 | 169 | 0.0 | 0.0 | 0.00 | 0.00 | 0.00 | 1 | 1015.4 |
| 20260905033516 | 80 | 169 | 0.0 | 0.0 | 0.00 | 0.00 | 0.00 | 1 | 1015.3 |
| 20260905033016 | 80 | 169 | 0.0 | 0.0 | 0.00 | 0.00 | 0.00 | 1 | 1015.3 |
| 20260905032516 | 80 | 169 | 0.0 | 0.0 | 0.00 | 0.00 | 0.00 | 1 | 1015.3 |
| 20260905032016 | 80 | 169 | 0.0 | 0.0 | 0.00 | 0.00 | 0.00 | 1 | 1015.4 |
| 20260905031515 | 80 | 169 | 0.0 | 0.0 | 0.00 | 0.00 | 0.00 | 1 | 1015.5 |
| 20260905031018 | 80 | 169 | 0.0 | 0.0 | 0.00 | 0.00 | 0.00 | 1 | 1015.2 |
| 20260905031014 | 80 | 169 | 0.0 | 0.0 | 0.00 | 0.00 | 0.00 | 1 | 1015.4 |
| 20260905030014 | 80 | 169 | 0.0 | 0.0 | 0.00 | 0.00 | 0.00 | 1 | 1015.1 |
| 20260905025514 | 80 | 169 | 0.0 | 0.0 | 0.00 | 0.00 | 0.00 | 1 | 1015.2 |
| 20260905025014 | 80 | 169 | 0.0 | 0.0 | 0.00 | 0.00 | 0.00 | 1 | 1015.1 |
| 20260905024518 | 80 | 169 | 0.0 | 0.0 | 0.00 | 0.00 | 0.00 | 1 | 1015.0 |
| 20260905024514 | 80 | 169 | 0.0 | 0.0 | 0.00 | 0.00 | 0.00 | 1 | 1015.1 |
| 20260905023514 | 80 | 169 | 0.0 | 0.0 | 0.00 | 0.00 | 0.00 | 1 | 1015.0 |
| 20260905023014 | 80 | 169 | 0.0 | 0.0 | 0.00 | 0.00 | 0.00 | 1 | 1014.9 |
| 20260905022513 | 81 | 169 | 0.0 | 0.0 | 0.00 | 0.00 | 0.00 | 1 | 1014.9 |
| 20260905022011 | 81 | 169 | 0.0 | 0.0 | 0.00 | 0.00 | 0.00 | 1 | 1014.9 |
| 20260905021511 | 81 | 169 | 0.0 | 0.0 | 0.00 | 0.00 | 0.00 | 1 | 1014.9 |
| 20260905021011 | 81 | 169 | 0.0 | 0.0 | 0.00 | 0.00 | 0.00 | 1 | 1015.0 |
| 20260905020513 | 81 | 169 | 0.0 | 0.0 | 0.00 | 0.00 | 0.00 | 1 | 1015.0 |
| 20260905020016 | 81 | 169 | 0.0 | 0.0 | 0.00 | 0.00 | 0.00 | 1 | 1015.0 |
| 20260905020012 | 81 | 169 | 0.0 | 0.0 | 0.00 | 0.00 | 0.00 | 1 | 1015.0 |
| 20260905015621 | 81 | 169 | 0.0 | 0.0 | 0.00 | 0.00 | 0.00 | 1 | 1014.9 |
| 20260905015617 | 81 | 169 | 0.0 | 0.0 | 0.00 | 0.00 | 0.00 | 1 | 1014.9 |
| 20260905015223 | 81 | 169 | 0.0 | 0.0 | 0.00 | 0.00 | 0.00 | 1 | 1014.9 |
| 20260905014512 | 81 | 169 | 0.0 | 0.0 | 0.00 | 0.00 | 0.00 | 1 | 1014.9 |
| 20260905013009 | 81 | 169 | 0.0 | 0.0 | 0.00 | 0.00 | 0.00 | 1 | 1014.8 |
| 20260905012510 | 81 | 169 | 0.0 | 0.0 | 0.00 | 0.00 | 0.00 | 1 | 1014.8 |
| 20260905012009 | 82 | 169 | 0.0 | 0.0 | 0.00 | 0.00 | 0.00 | 1 | 1014.7 |
| 20260905011509 | 82 | 169 | 0.0 | 0.0 | 0.00 | 0.00 | 0.00 | 1 | 1014.7 |
| 20260905011009 | 82 | 169 | 0.0 | 0.0 | 0.00 | 0.00 | 0.00 | 1 | 1014.7 |
| 20260905010509 | 82 | 169 | 0.0 | 0.0 | 0.00 | 0.00 | 0.00 | 1 | 1014.6 |
| 20260905010010 | 82 | 169 | 0.0 | 0.0 | 0.00 | 0.00 | 0.00 | 1 | 1014.6 |
| 20260905005510 | 83 | 169 | 0.0 | 0.0 | 0.00 | 0.00 | 0.00 | 1 | 1014.5 |
| 20260905005010 | 83 | 169 | 0.0 | 0.0 | 0.00 | 0.00 | 0.00 | 1 | 1014.6 |
| 20260905004509 | 83 | 169 | 0.0 | 0.0 | 0.00 | 0.00 | 0.00 | 1 | 1014.5 |
| 20260905004010 | 83 | 169 | 0.0 | 0.0 | 0.00 | 0.00 | 0.00 | 1 | 1014.5 |
| 20260905003510 | 83 | 169 | 0.0 | 0.0 | 0.00 | 0.00 | 0.00 | 1 | 1014.5 |
| 20260905003009 | 84 | 169 | 0.0 | 0.0 | 0.00 | 0.00 | 0.00 | 1 | 1014.5 |
| 20260905002509 | 84 | 169 | 0.0 | 0.0 | 0.00 | 0.00 | 0.00 | 1 | 1014.4 |
| 20260905002013 | 85 | 169 | 0.0 | 0.0 | 0.00 | 0.00 | 0.00 | 1 | 1014.4 |
| 20260905002009 | 84 | 169 | 0.0 | 0.0 | 0.00 | 0.00 | 0.00 | 1 | 1014.4 |
| 20260905001615 | 85 | 169 | 0.0 | 0.0 | 0.00 | 0.00 | 0.00 | 1 | 1014.4 |
| 20260905000514 | 86 | 169 | 0.0 | 0.0 | 0.00 | 0.00 | 0.00 | 1 | 1014.3 |
| 20260905000510 | 86 | 169 | 0.0 | 0.0 | 0.00 | 0.00 | 0.00 | 1 | 1014.4 |
| 20260904235510 | 87 | 169 | 0.0 | 0.0 | 0.00 | 0.00 | 0.00 | 1 | 1014.4 |
| 20260904235009 | 88 | 169 | 0.0 | 0.0 | 0.00 | 0.00 | 0.00 | 1 | 1014.4 |
| 20260904234509 | 88 | 169 | 0.0 | 0.0 | 0.00 | 0.00 | 0.00 | 1 | 1014.3 |
| 20260904234009 | 89 | 169 | 0.0 | 0.0 | 0.00 | 0.00 | 0.00 | 1 | 1014.3 |
| 20260904233509 | 90 | 169 | 0.0 | 0.0 | 0.00 | 0.00 | 0.00 | 1 | 1014.3 |
| 20260904233010 | 91 | 169 | 0.0 | 0.0 | 0.00 | 0.00 | 0.00 | 1 | 1014.3 |
| 20260904232510 | 92 | 169 | 0.0 | 0.0 | 0.00 | 0.00 | 0.00 | 7 | 1014.3 |
| 20260904232009 | 92 | 169 | 0.0 | 0.0 | 0.00 | 0.00 | 0.00 | 15 | 1014.3 |
| 20260904231509 | 93 | 169 | 0.0 | 0.0 | 0.00 | 0.00 | 0.00 | 22 | 1014.2 |
| 20260904231013 | 95 | 169 | 0.0 | 0.0 | 0.00 | 0.00 | 0.00 | 33 | 1014.2 |
| 20260904231008 | 93 | 169 | 0.0 | 0.0 | 0.00 | 0.00 | 0.00 | 21 | 1014.2 |
| 20260904230507 | 94 | 169 | 0.0 | 0.0 | 0.00 | 0.00 | 0.00 | 24 | 1014.2 |
| 20260904225507 | 95 | 169 | 0.0 | 0.0 | 0.00 | 0.00 | 0.00 | 36 | 1014.2 |
| 20260904225008 | 95 | 169 | 0.0 | 0.0 | 0.00 | 0.00 | 0.00 | 23 | 1014.3 |
| 20260904224507 | 96 | 169 | 0.0 | 0.0 | 0.00 | 0.00 | 0.00 | 27 | 1014.3 |
| 20260904224009 | 96 | 169 | 0.0 | 0.0 | 0.00 | 0.00 | 0.00 | 28 | 1014.3 |
| 20260904224005 | 96 | 169 | 0.0 | 0.0 | 0.00 | 0.00 | 0.00 | 34 | 1014.3 |
| 20260904223005 | 96 | 169 | 0.0 | 0.9 | 0.00 | 0.00 | 0.00 | 36 | 1014.3 |
| 20260904222505 | 96 | 169 | 0.0 | 3.5 | 0.00 | 0.00 | 0.00 | 44 | 1014.3 |
| 20260904222005 | 96 | 169 | 0.0 | 3.5 | 0.00 | 0.00 | 0.00 | 49 | 1014.3 |
| 20260904221509 | 97 | 217 | 0.0 | 2.6 | 0.00 | 0.00 | 0.00 | 47 | 1014.3 |
| 20260904221505 | 97 | 216 | 0.0 | 1.7 | 0.00 | 0.00 | 0.00 | 47 | 1014.3 |
| 20260904220505 | 97 | 217 | 0.0 | 2.6 | 0.00 | 0.00 | 0.00 | 52 | 1014.3 |
| 20260904220005 | 97 | 138 | 0.0 | 0.9 | 0.00 | 0.00 | 0.00 | 51 | 1014.4 |
| 20260904215503 | 97 | 138 | 0.0 | 2.6 | 0.00 | 0.00 | 0.00 | 47 | 1014.5 |
| 20260904215001 | 97 | 138 | 0.0 | 2.6 | 0.00 | 0.00 | 0.00 | 51 | 1014.5 |
| 20260904214459 | 97 | 134 | 0.9 | 1.7 | 0.00 | 0.00 | 0.00 | 52 | 1014.5 |
| 20260904213959 | 97 | 134 | 0.9 | 1.7 | 0.00 | 0.00 | 0.00 | 53 | 1014.5 |
| 20260904213459 | 97 | 234 | 0.9 | 2.6 | 0.00 | 0.00 | 0.00 | 53 | 1014.5 |
| 20260904212959 | 97 | 234 | 0.9 | 2.6 | 0.00 | 0.00 | 0.00 | 53 | 1014.6 |
| 20260904212459 | 98 | 178 | 0.9 | 2.6 | 0.00 | 0.00 | 0.00 | 53 | 1014.6 |
| 20260904211958 | 98 | 155 | 0.9 | 2.6 | 0.00 | 0.00 | 0.00 | 53 | 1014.5 |
| 20260904211457 | 98 | 122 | 0.9 | 2.6 | 0.00 | 0.00 | 0.00 | 53 | 1014.6 |
| 20260904210958 | 98 | 195 | 0.9 | 2.6 | 0.00 | 0.00 | 0.00 | 54 | 1014.7 |
| 20260904210457 | 98 | 197 | 0.9 | 2.6 | 0.00 | 0.00 | 0.00 | 54 | 1014.7 |
| 20260904205957 | 98 | 197 | 0.9 | 2.6 | 0.00 | 0.00 | 0.00 | 53 | 1014.8 |
| 20260904205457 | 98 | 225 | 0.9 | 3.5 | 0.00 | 0.00 | 0.00 | 54 | 1014.9 |